Regional Weather Roundup
Issued by NWS

Home | Current Version | Previous Version | Text Only | Print | Product List | Glossary On
Versions: 1 2 3 4 5 6 7 8 9 10 11 12 13 14 15 16 17 18 19 20 21 22 23 24 25 26 27 28 29 30 31 32 33 34 35 36 37 38 39 40 41 42 43 44 45 46 47 48 49 50
000
ASUS45 KREV 012110
RWRNV
NEVADA REGIONAL WEATHER ROUNDUP
NATIONAL WEATHER SERVICE RENO NV
200 PM PDT WED OCT 01 2014

NOTE: "FAIR" INDICATES FEW OR NO CLOUDS BELOW 12,000 FEET WITH NO
SIGNIFICANT WEATHER AND/OR OBSTRUCTIONS TO VISIBILITY.

NVZ001-003-004-012200-
WESTERN NEVADA

CITY           SKY/WX    TMP DP  RH WIND       PRES   REMARKS
RENO           SUNNY     64  25  22 E9        30.16F
CARSON CITY    FAIR      64  25  22 E10G17    30.16F
MINDEN         FAIR      63  27  25 W7        30.17
FALLON         SUNNY     63  25  23 NW5       30.16F
LOVELOCK       SUNNY     62  22  21 E3        30.16F
HAWTHORNE      SUNNY     63  32  31 W8        30.16F
$$

NVZ002-CAZ072-073-012200-
NORTHERN AND CENTRAL SIERRA

CITY           SKY/WX    TMP DP  RH WIND       PRES   REMARKS
S. LAKE TAHOE  SUNNY     62  23  22 CALM      30.16S
TRUCKEE        SUNNY     61  27  27 SE7       30.16F
SQUAW VLY 8000 NOT AVBL
SUSANVILLE     SUNNY     63  28  27 E8        30.16F
BLUE CANYON    SUNNY     67  16  14 VRB7      30.10F
MAMMOTH LAKES  FAIR      64  10  12 W5        30.18F
BRIDGEPORT     FAIR      61  22  22 VRB5      30.15F
$$

NVZ030-031-036-012200-
NORTHERN NEVADA

CITY           SKY/WX    TMP DP  RH WIND       PRES   REMARKS
ELKO           MOSUNNY   57  25  29 VRB5      30.16F
WINNEMUCCA     SUNNY     57  32  38 VRB5      30.18F
WENDOVER       MOSUNNY   57  28  33 N5        30.13F
$$

NVZ035-037-012200-
CENTRAL NEVADA

CITY           SKY/WX    TMP DP  RH WIND       PRES   REMARKS
ELY            SUNNY     55  19  24 N13G18    30.15F
EUREKA           N/A     56  17  21 NW8G20    30.18F
$$

NVZ013-014-012200-
SOUTH CENTRAL NEVADA

CITY           SKY/WX    TMP DP  RH WIND       PRES   REMARKS
TONOPAH        SUNNY     65  13  13 N16       30.14F
$$

NVZ017-020-022-012200-
SOUTHERN NEVADA

CITY           SKY/WX    TMP DP  RH WIND       PRES   REMARKS
LAS VEGAS      MOSUNNY   82  30  15 E12G22    29.87F
N. LAS VEGAS   SUNNY     83  27  13 N18G28    29.88F
NELLIS AFB     SUNNY     82  31  15 NE15      29.88F
HENDERSON      SUNNY     82  32  16 NE12G21   29.92F
MERCURY        SUNNY     77  23  13 NE10G22   29.99S
$$


USA.gov is the U.S. government's official web portal to all federal, state and local government web resources and services.